Total_Precipitation_Accumulation
0.00 0.01 0.04 0.10 0.21 0.43 0.58 0.31 0.12 0.05 0.04 0.03 0.03 0.03 0.08 0.07 0.11 0.16 0.02 0.00 0.00 0.00 0.00 0.01 0.01 0.01 0.01 0.02 0.03 0.04 0.04 0.05 0.06 0.05 0.04 0.03 0.02 0.02 0.02 0.01 0.01 0.01 0.02 0.02 0.02 0.02 0.02 0.02 0.01
0.00 0.01 0.03 0.09 0.25 0.54 0.64 0.30 0.10 0.05 0.03 0.03 0.02 0.02 0.02 0.01 0.01 0.01 0.00 0.00 0.00 0.00 0.00 0.00 0.01 0.01 0.01 0.01 0.02 0.03 0.04 0.04 0.04 0.04 0.03 0.03 0.02 0.02 0.02 0.02 0.01 0.02 0.03 0.03 0.02 0.02 0.02 0.01 0.01
0.00 0.00 0.02 0.04 0.14 0.31 0.46 0.19 0.10 0.07 0.06 0.04 0.02 0.01 0.01 0.01 0.00 0.00 0.00 0.00 0.00 0.00 0.00 0.00 0.01 0.01 0.01 0.01 0.02 0.03 0.04 0.04 0.03 0.03 0.02 0.03 0.03 0.03 0.03 0.03 0.03 0.03 0.04 0.04 0.04 0.03 0.03 0.02 0.01
0.00 0.00 0.01 0.01 0.04 0.10 0.20 0.17 0.12 0.12 0.10 0.05 0.02 0.01 0.01 0.01 0.01 0.00 0.00 0.00 0.00 0.00 0.00 0.01 0.02 0.02 0.02 0.02 0.03 0.03 0.04 0.04 0.04 0.03 0.03 0.02 0.02 0.03 0.03 0.03 0.04 0.05 0.06 0.06 0.06 0.05 0.05 0.04 0.02
0.00 0.00 0.00 0.02 0.04 0.04 0.06 0.08 0.14 0.15 0.10 0.06 0.03 0.02 0.01 0.01 0.01 0.00 0.00 0.00 0.00 0.00 0.00 0.01 0.02 0.03 0.03 0.03 0.04 0.05 0.05 0.05 0.05 0.04 0.03 0.03 0.03 0.03 0.04 0.04 0.04 0.06 0.08 0.09 0.10 0.09 0.08 0.07 0.04
0.00 0.00 0.00 0.01 0.02 0.03 0.05 0.07 0.14 0.17 0.13 0.10 0.08 0.05 0.02 0.02 0.02 0.01 0.01 0.00 0.00 0.00 0.01 0.02 0.02 0.03 0.03 0.04 0.05 0.06 0.06 0.06 0.07 0.06 0.06 0.06 0.06 0.05 0.06 0.06 0.06 0.06 0.08 0.10 0.13 0.14 0.13 0.10 0.09
0.00 0.00 0.00 0.00 0.00 0.02 0.05 0.07 0.12 0.17 0.15 0.17 0.17 0.13 0.07 0.06 0.03 0.02 0.02 0.02 0.01 0.01 0.01 0.02 0.03 0.04 0.04 0.06 0.08 0.10 0.10 0.10 0.10 0.08 0.08 0.08 0.08 0.08 0.09 0.10 0.09 0.10 0.11 0.12 0.14 0.15 0.18 0.16 0.13
0.00 0.00 0.00 0.00 0.01 0.04 0.08 0.11 0.13 0.17 0.26 0.21 0.18 0.20 0.14 0.11 0.05 0.04 0.03 0.03 0.03 0.02 0.03 0.03 0.05 0.09 0.12 0.11 0.09 0.11 0.12 0.12 0.11 0.10 0.10 0.09 0.09 0.12 0.15 0.15 0.14 0.16 0.18 0.19 0.18 0.18 0.22 0.27 0.24
0.00 0.00 0.00 0.00 0.01 0.07 0.13 0.16 0.14 0.12 0.11 0.13 0.18 0.21 0.13 0.07 0.07 0.08 0.05 0.05 0.05 0.04 0.05 0.07 0.08 0.10 0.14 0.16 0.12 0.15 0.15 0.17 0.16 0.20 0.19 0.17 0.19 0.24 0.31 0.32 0.35 0.34 0.36 0.42 0.42 0.41 0.45 0.50 0.43
0.00 0.00 0.00 0.00 0.00 0.02 0.08 0.16 0.18 0.12 0.08 0.19 0.35 0.30 0.20 0.12 0.09 0.12 0.13 0.11 0.10 0.10 0.10 0.11 0.13 0.14 0.18 0.23 0.27 0.32 0.34 0.41 0.39 0.47 0.53 0.54 0.55 0.41 0.33 0.54 0.69 0.69 0.80 0.87 0.92 1.07 1.02 0.88 0.67
0.00 0.00 0.00 0.00 0.00 0.01 0.03 0.08 0.12 0.10 0.21 0.47 0.55 0.39 0.22 0.13 0.16 0.19 0.22 0.23 0.22 0.22 0.21 0.25 0.25 0.25 0.31 0.36 0.37 0.48 0.60 0.73 0.73 0.80 0.92 1.05 1.07 0.87 0.71 0.93 1.15 1.15 1.23 1.25 1.48 1.70 1.32 1.19 1.11
0.00 0.00 0.00 0.00 0.00 0.01 0.02 0.07 0.13 0.22 0.52 0.71 0.53 0.37 0.34 0.32 0.34 0.38 0.38 0.49 0.49 0.52 0.51 0.49 0.52 0.54 0.54 0.57 0.58 0.57 0.59 0.66 0.73 0.88 1.02 1.38 1.45 1.40 1.34 1.38 1.31 1.45 1.54 1.77 1.84 1.80 1.59 1.54 1.41
0.00 0.00 0.00 0.00 0.00 0.01 0.03 0.07 0.17 0.30 0.42 0.55 0.34 0.22 0.35 0.44 0.47 0.48 0.47 0.50 0.61 0.81 0.95 0.98 1.00 0.90 0.85 0.79 0.69 0.63 0.63 0.64 0.67 0.88 1.06 1.41 1.60 1.63 1.73 1.46 1.35 1.32 1.53 1.80 1.75 1.60 1.63 1.71 1.72
0.00 0.00 0.01 0.01 0.01 0.02 0.04 0.06 0.11 0.19 0.17 0.25 0.21 0.20 0.26 0.35 0.37 0.41 0.52 0.65 0.90 1.16 1.38 1.44 1.43 1.29 1.16 1.02 0.91 0.90 0.87 0.77 0.67 0.84 0.94 1.34 1.64 1.60 1.48 1.45 1.44 1.36 1.53 1.58 1.66 1.70 1.83 1.87 1.94
0.00 0.01 0.05 0.05 0.03 0.03 0.04 0.10 0.15 0.20 0.16 0.17 0.21 0.22 0.24 0.30 0.36 0.51 0.68 0.91 1.26 1.55 1.74 1.86 1.94 1.74 1.55 1.43 1.28 1.15 1.07 0.96 0.89 0.88 0.88 1.19 1.46 1.53 1.54 1.45 1.34 1.38 1.48 1.55 1.61 1.66 1.73 1.63 1.67
0.01 0.04 0.13 0.13 0.06 0.06 0.06 0.26 0.46 0.31 0.18 0.17 0.20 0.23 0.29 0.36 0.48 0.62 0.78 1.02 1.40 1.81 2.25 2.38 2.22 2.01 1.83 1.64 1.44 1.37 1.36 1.30 1.15 0.94 0.86 0.94 1.13 1.28 1.33 1.22 1.21 1.31 1.23 1.21 1.25 1.24 1.29 1.31 1.43
0.04 0.07 0.13 0.21 0.12 0.08 0.15 0.57 0.71 0.36 0.21 0.24 0.31 0.32 0.39 0.49 0.66 0.76 0.85 1.11 1.48 2.04 2.72 2.78 2.36 2.06 1.86 1.72 1.63 1.57 1.52 1.31 1.17 1.02 0.93 0.85 0.81 0.78 0.82 0.80 0.83 0.90 0.91 0.91 0.88 1.02 1.09 1.14 1.25
0.03 0.07 0.18 0.30 0.16 0.13 0.21 0.57 0.58 0.38 0.32 0.32 0.30 0.33 0.37 0.47 0.60 0.72 0.88 1.21 1.81 2.58 3.16 3.12 2.61 2.20 1.96 1.80 1.62 1.43 1.33 1.19 1.06 0.97 0.87 0.71 0.66 0.61 0.58 0.56 0.58 0.57 0.60 0.66 0.69 0.73 0.83 0.85 0.90
0.03 0.06 0.18 0.22 0.15 0.23 0.28 0.44 0.53 0.55 0.50 0.41 0.34 0.31 0.34 0.39 0.51 0.73 1.19 1.85 2.60 3.26 3.38 2.95 2.51 2.23 1.96 1.65 1.17 0.85 0.74 0.71 0.67 0.57 0.51 0.46 0.42 0.43 0.45 0.41 0.40 0.40 0.39 0.40 0.44 0.51 0.57 0.59 0.68
0.04 0.06 0.17 0.23 0.14 0.16 0.27 0.52 0.72 0.67 0.55 0.42 0.36 0.36 0.42 0.59 0.82 1.29 2.09 2.61 2.61 2.47 2.08 1.69 1.50 1.37 1.10 0.83 0.57 0.46 0.41 0.38 0.36 0.34 0.36 0.34 0.29 0.30 0.30 0.30 0.31 0.31 0.29 0.30 0.33 0.36 0.37 0.40 0.51
0.09 0.09 0.17 0.23 0.12 0.11 0.27 0.66 0.83 0.75 0.59 0.41 0.32 0.31 0.52 0.84 1.26 1.86 2.26 2.14 1.59 1.09 0.90 0.82 0.76 0.56 0.41 0.37 0.33 0.28 0.25 0.25 0.23 0.22 0.24 0.24 0.21 0.22 0.23 0.23 0.24 0.27 0.28 0.29 0.32 0.32 0.32 0.32 0.34
0.08 0.05 0.05 0.08 0.12 0.27 0.43 0.86 0.94 0.70 0.65 0.50 0.42 0.36 0.47 0.66 0.88 1.16 1.27 1.01 0.83 0.72 0.64 0.67 0.59 0.37 0.29 0.25 0.21 0.19 0.18 0.20 0.19 0.19 0.19 0.19 0.17 0.18 0.17 0.17 0.16 0.18 0.23 0.29 0.29 0.34 0.34 0.32 0.26
0.03 0.03 0.03 0.08 0.16 0.31 0.46 0.68 0.78 0.60 0.68 0.51 0.36 0.32 0.32 0.45 0.50 0.47 0.46 0.41 0.39 0.40 0.44 0.52 0.52 0.46 0.37 0.30 0.24 0.21 0.19 0.18 0.19 0.19 0.19 0.20 0.20 0.18 0.18 0.18 0.17 0.15 0.15 0.20 0.23 0.31 0.35 0.36 0.31
0.03 0.04 0.10 0.17 0.26 0.55 0.59 0.65 0.81 0.73 0.77 0.56 0.37 0.28 0.28 0.41 0.43 0.35 0.27 0.23 0.24 0.26 0.27 0.34 0.45 0.56 0.52 0.44 0.36 0.30 0.24 0.21 0.20 0.19 0.19 0.19 0.18 0.18 0.17 0.18 0.19 0.19 0.17 0.15 0.15 0.20 0.27 0.34 0.36
0.05 0.06 0.20 0.48 0.74 0.79 0.49 0.54 0.78 0.62 0.57 0.41 0.21 0.15 0.23 0.37 0.45 0.42 0.31 0.23 0.18 0.17 0.15 0.13 0.16 0.27 0.30 0.30 0.31 0.31 0.30 0.26 0.21 0.18 0.15 0.17 0.16 0.16 0.16 0.16 0.18 0.19 0.20 0.19 0.17 0.16 0.19 0.26 0.32
0.03 0.02 0.07 0.14 0.18 0.28 0.34 0.60 0.76 0.60 0.38 0.17 0.07 0.06 0.15 0.22 0.25 0.25 0.19 0.13 0.08 0.06 0.06 0.04 0.04 0.07 0.08 0.10 0.13 0.18 0.21 0.17 0.15 0.21 0.17 0.17 0.21 0.22 0.21 0.16 0.15 0.17 0.18 0.18 0.18 0.17 0.17 0.21 0.26
0.02 0.01 0.02 0.03 0.04 0.15 0.37 0.59 0.54 0.46 0.31 0.13 0.07 0.05 0.06 0.08 0.09 0.10 0.10 0.08 0.06 0.04 0.03 0.03 0.02 0.02 0.02 0.03 0.05 0.09 0.15 0.15 0.14 0.16 0.17 0.16 0.22 0.23 0.21 0.18 0.15 0.15 0.16 0.17 0.18 0.18 0.20 0.23 0.26
0.02 0.01 0.01 0.02 0.05 0.10 0.25 0.51 0.61 0.47 0.32 0.13 0.08 0.07 0.06 0.08 0.07 0.07 0.06 0.06 0.05 0.04 0.04 0.04 0.03 0.02 0.02 0.02 0.03 0.05 0.12 0.15 0.16 0.15 0.17 0.19 0.19 0.19 0.17 0.16 0.14 0.12 0.13 0.16 0.17 0.18 0.22 0.26 0.32
0.03 0.02 0.02 0.02 0.03 0.06 0.12 0.25 0.25 0.20 0.13 0.09 0.05 0.03 0.04 0.04 0.05 0.04 0.04 0.04 0.04 0.03 0.03 0.03 0.03 0.03 0.02 0.02 0.02 0.02 0.06 0.10 0.14 0.18 0.19 0.20 0.19 0.18 0.16 0.15 0.14 0.13 0.13 0.15 0.18 0.20 0.22 0.25 0.31
0.03 0.03 0.02 0.03 0.03 0.03 0.06 0.15 0.10 0.10 0.09 0.06 0.02 0.01 0.01 0.01 0.01 0.01 0.02 0.02 0.02 0.03 0.03 0.04 0.04 0.03 0.03 0.02 0.02 0.01 0.01 0.03 0.06 0.11 0.14 0.17 0.17 0.15 0.15 0.15 0.13 0.11 0.11 0.14 0.19 0.22 0.22 0.25 0.28